ISS DEB (SEDA-AP) (43870 NORAD) Tracking and Keplerian Element Data

This shows tracking and keplerian element data for the satellite.

Feedback or suggestion? Click here.




ElementValue
Catalog43870
NameISS DEB (SEDA-AP)
Epoch Orbit21161
Epoch Day248.13621612
Epoch Year2022
RAAN169.9124
Inclination51.6231
Eccentricity0.0002485
Argument of Perigee163.1311
Mean Anonmoly196.9784
Mean Motion16.05291694
Decay Rate0.00397049
L11 43870U 98067PU 22248.13621612 .00397049 83810-4 55508-3 0 9994
L22 43870 51.6231 169.9124 0002485 163.1311 196.9784 16.05291694211617



Live tracking and technical data element details for ISS DEB (SEDA-AP) (NORAD 43870). ISS DEB (SEDA-AP) can be tracked NOW for your location showing map with azimuth and elevation plus other details from your city location.







IsCatalogInMostPopularTable: catalog: 43870, numindb: 25377
Update: records affected: 1



GetName: 43870 ISS DEB (SEDA-AP)

Hit Count: updated at: Sun, 04 Dec 2022 20:55:07 GMT